Hartford, CT

11:18 PM EDT on August 26, 2016 (GMT -0400)
Hartford-brainard

Weather History for KHFD - March, 2014

Change the Weather History Date:

Friday, March 14, 2014

  Actual Average Record
Temperature  
Mean Temperature 28 °F -  
Max Temperature 39 °F 45 °F 78 °F (1946)
Min Temperature 17 °F 27 °F 7 °F (1941)
Degree Days  
Heating Degree Days 37    
Moisture  
Dew Point 12 °F    
Average Humidity 51    
Maximum Humidity 68    
Minimum Humidity 34    
Precipitation  
Precipitation 0.00 in - - ()
Sea Level Pressure  
Sea Level Pressure 30.09 in    
Wind  
Wind Speed 7 mph (SSW)    
Max Wind Speed 15 mph    
Max Gust Speed 25 mph    
Visibility 10 miles    
Events      
Averages and records for this station are not official NWS values.
T = Trace of Precipitation, MM = Missing Value Source: NWS Daily Summary

Daily Weather History Graph

Daily Weather History Graph

Search for Another Location

Airport or City:

Trip Planner

Search our weather history database for the weather conditions in past years. The results will help you decide how hot, cold, wet, or windy it might be!

Date:

Astronomy

Mar. 14, 2014 Rise Set
Actual Time 7:04 AM EDT 6:56 PM EDT
Civil Twilight 6:36 AM EDT 7:23 PM EDT
Nautical Twilight 6:04 AM EDT 7:56 PM EDT
Astronomical Twilight 5:31 AM EDT 8:28 PM EDT
Moon 5:14 PM EDT (3/14) 5:43 AM EDT (3/14)
Length of Visible Light 12h 47m
Length of Day
11h 51m
Waxing Gibbous, 96% of the Moon is Illuminated
Mar 14
Waxing Gibbous
Mar 16
Full
Mar 23
Last Quarter
Mar 30
New
Apr 7
First Quarter

Hourly Weather History & Observations

Time (EDT) Temp. Windchill Dew Point Humidity Pressure Visibility Wind Dir Wind Speed Gust Speed Precip Events Conditions
12:53 AM 17.1 °F 7.6 °F 3.9 °F 56% 30.05 in 10.0 mi West 6.9 mph - N/A   Clear
1:53 AM 18.0 °F 11.1 °F 6.1 °F 60% 30.07 in 10.0 mi WNW 4.6 mph - N/A   Clear
2:53 AM 18.0 °F 8.7 °F 6.1 °F 60% 30.08 in 10.0 mi West 6.9 mph - N/A   Clear
3:53 AM 18.0 °F 11.1 °F 5.0 °F 57% 30.10 in 10.0 mi WNW 4.6 mph - N/A   Clear
4:53 AM 17.1 °F 11.7 °F 8.1 °F 68% 30.13 in 10.0 mi South 3.5 mph - N/A   Mostly Cloudy
5:53 AM 18.0 °F 11.1 °F 8.1 °F 65% 30.16 in 10.0 mi SSE 4.6 mph - N/A   Overcast
6:53 AM 17.1 °F 5.8 °F 7.0 °F 65% 30.17 in 10.0 mi South 9.2 mph - N/A   Clear
7:53 AM 19.0 °F 11.1 °F 7.0 °F 59% 30.21 in 10.0 mi South 5.8 mph - N/A   Overcast
8:53 AM 21.0 °F 14.6 °F 7.0 °F 55% 30.22 in 10.0 mi SSW 4.6 mph - N/A   Overcast
9:53 AM 25.0 °F 19.3 °F 3.9 °F 41% 30.22 in 10.0 mi Variable 4.6 mph - N/A   Mostly Cloudy
10:53 AM 26.1 °F 18.4 °F 1.0 °F 34% 30.21 in 10.0 mi SSW 6.9 mph - N/A   Overcast
11:53 AM 28.0 °F 18.6 °F 3.9 °F 36% 30.19 in 10.0 mi South 10.4 mph - N/A   Overcast
12:53 PM 30.9 °F 24.3 °F 7.0 °F 37% 30.16 in 10.0 mi South 6.9 mph - N/A   Overcast
1:53 PM 35.1 °F 27.4 °F 10.9 °F 37% 30.13 in 10.0 mi South 10.4 mph 17.3 mph N/A   Mostly Cloudy
2:53 PM 37.0 °F 29.8 °F 12.9 °F 37% 30.09 in 10.0 mi South 10.4 mph 20.7 mph N/A   Overcast
3:53 PM 39.0 °F 31.4 °F 14.0 °F 36% 30.06 in 10.0 mi SSW 12.7 mph 21.9 mph N/A   Clear
4:53 PM 39.0 °F 31.0 °F 17.1 °F 41% 30.02 in 10.0 mi South 13.8 mph 20.7 mph N/A   Clear
5:53 PM 39.0 °F 30.6 °F 18.0 °F 43% 30.00 in 10.0 mi South 15.0 mph 25.3 mph N/A   Clear
6:53 PM 37.0 °F 29.3 °F 19.0 °F 48% 29.99 in 10.0 mi South 11.5 mph - N/A   Clear
7:53 PM 37.0 °F 29.3 °F 21.0 °F 52% 29.99 in 10.0 mi South 11.5 mph - N/A   Clear
8:53 PM 37.0 °F 29.8 °F 21.0 °F 52% 29.98 in 10.0 mi South 10.4 mph 19.6 mph N/A   Clear
9:53 PM 37.0 °F 29.8 °F 23.0 °F 57% 29.98 in 10.0 mi South 10.4 mph - N/A   Clear
10:53 PM 37.0 °F 30.4 °F 25.0 °F 62% 29.96 in 10.0 mi South 9.2 mph - N/A   Clear
11:53 PM 37.0 °F 31.0 °F 27.0 °F 67% 29.94 in 10.0 mi South 8.1 mph - N/A   Clear